MicroStrategy Debt to Equity Ratio 2010-2024 | MSTR

Current and historical debt to equity ratio values for MicroStrategy (MSTR) over the last 10 years. The debt/equity ratio can be defined as a measure of a company's financial leverage calculated by dividing its long-term debt by stockholders' equity. MicroStrategy debt/equity for the three months ending March 31, 2024 was 1.48.
MicroStrategy Debt/Equity Ratio Historical Data
Date Long Term Debt Shareholder's Equity Debt to Equity Ratio
2024-03-31 $3.95B $2.40B 1.65
2023-12-31 $2.60B $2.17B 1.20
2023-09-30 $2.53B $0.84B 3.02
2023-06-30 $2.54B $0.82B 3.11
2023-03-31 $2.58B $0.44B 5.83
2022-12-31 $2.79B $-0.38B -7.29
2022-09-30 $2.75B $-0.20B -13.71
2022-06-30 $2.76B $-0.19B -14.73
2022-03-31 $2.78B $0.86B 3.22
2021-12-31 $2.58B $0.98B 2.63
2021-09-30 $2.53B $0.46B 5.47
2021-06-30 $2.55B $0.08B 32.90
2021-03-31 $2.08B $0.37B 5.69
2020-12-31 $0.91B $0.55B 1.65
2020-09-30 $0.38B $0.39B 0.99
2020-06-30 $0.38B $0.46B 0.82
2020-03-31 $0.39B $0.46B 0.84
2019-12-31 $0.41B $0.51B 0.80
2019-09-30 $0.37B $0.52B 0.72
2019-06-30 $0.40B $0.50B 0.79
2019-03-31 $0.41B $0.48B 0.86
2018-12-31 $0.33B $0.53B 0.62
2018-09-30 $0.28B $0.64B 0.44
2018-06-30 $0.31B $0.62B 0.50
2018-03-31 $0.34B $0.61B 0.55
2017-12-31 $0.33B $0.61B 0.54
2017-09-30 $0.20B $0.61B 0.33
2017-06-30 $0.21B $0.59B 0.35
2017-03-31 $0.22B $0.57B 0.38
2016-12-31 $0.22B $0.55B 0.39
2016-09-30 $0.22B $0.52B 0.42
2016-06-30 $0.22B $0.49B 0.45
2016-03-31 $0.23B $0.47B 0.48
2015-12-31 $0.20B $0.46B 0.44
2015-09-30 $0.22B $0.41B 0.54
2015-06-30 $0.23B $0.38B 0.61
2015-03-31 $0.23B $0.35B 0.67
2014-12-31 $0.23B $0.32B 0.72
2014-09-30 $0.26B $0.30B 0.87
2014-06-30 $0.27B $0.30B 0.91
2014-03-31 $0.26B $0.31B 0.86
2013-12-31 $0.28B $0.31B 0.89
2013-09-30 $0.26B $0.29B 0.89
2013-06-30 $0.26B $0.27B 0.96
2013-03-31 $0.27B $0.28B 0.99
2012-12-31 $0.28B $0.20B 1.39
2012-09-30 $0.27B $0.19B 1.39
2012-06-30 $0.26B $0.18B 1.42
2012-03-31 $0.28B $0.17B 1.63
2011-12-31 $0.29B $0.17B 1.69
2011-09-30 $0.25B $0.16B 1.53
2011-06-30 $0.25B $0.16B 1.58
2011-03-31 $0.24B $0.15B 1.56
2010-12-31 $0.23B $0.15B 1.56
2010-09-30 $0.20B $0.16B 1.26
2010-06-30 $0.18B $0.19B 0.93
2010-03-31 $0.17B $0.21B 0.82
2009-12-31 $0.17B $0.21B 0.79
2009-09-30 $0.15B $0.19B 0.80
2009-06-30 $0.14B $0.17B 0.84
2009-03-31 $0.14B $0.16B 0.89
Sector Industry Market Cap Revenue
Computer and Technology Computer Software $27.388B $0.496B
MicroStrategy Incorporated, a leading worldwide provider of business intelligence software, today announced that GT Nexus has selected MicroStrategy to power the customer-facing analytics and reporting capabilities on its Global Logistics portal. The GT Nexus portal is an on demand technology platform that is used by importers, exporters, transportation carriers, suppliers, banks, and other partners to manage goods that are moving around the world. The GT Nexus system captures and stores hard-to-get data associated with global supply chains, and then fuels a range of Web applications that can be used by constituents to lower supply chain costs and improve control. MicroStrategy will help GT Nexus to deliver a wide range of analytics and reporting capabilities to its customers, which include Home Depot, Kmart, Xerox, Weyerhaeuser, and American Eagle Outfitters.
Stock Name Country Market Cap PE Ratio
Microsoft (MSFT) United States $3173.595B 36.97
Oracle (ORCL) United States $341.061B 27.76
Salesforce (CRM) United States $269.656B 45.08
Adobe (ADBE) United States $216.523B 36.20
Intuit (INTU) United States $185.433B 57.69
Synopsys (SNPS) United States $89.411B 61.91
Cadence Design Systems (CDNS) United States $80.195B 76.35
Dassault Systemes SA (DASTY) France $56.522B 36.72
Autodesk (ADSK) United States $46.362B 45.30
ANSYS (ANSS) United States $28.650B 53.02
PTC (PTC) United States $21.857B 57.97
SS&C Technologies Holdings (SSNC) United States $15.324B 14.51
Manhattan Associates (MANH) United States $13.875B 73.64
Descartes Systems Group (DSGX) Canada $8.441B 73.89
Open Text (OTEX) Canada $8.282B 8.34
Trend Micro (TMICY) Japan $6.479B 46.93
Pegasystems (PEGA) United States $5.156B 45.59
CommVault Systems (CVLT) United States $4.801B 78.46
Blackbaud (BLKB) United States $4.089B 35.20
ACI Worldwide (ACIW) United States $3.740B 17.91
Progress Software (PRGS) United States $2.186B 13.90
Verint Systems (VRNT) United States $1.925B 17.94
Sapiens (SPNS) Israel $1.877B 25.59
BlackBerry (BB) Canada $1.676B 0.00
PROS Holdings (PRO) United States $1.466B 0.00
Simulations Plus (SLP) United States $0.993B 73.04
Rand Worldwide (RWWI) United States $0.647B 0.00
Magic Software Enterprises (MGIC) Israel $0.513B 10.88
American Software (AMSWA) United States $0.359B 30.00
Canaan (CAN) China $0.238B 0.00
OptimizeRx (OPRX) United States $0.225B 0.00
Rigetti Computing (RGTI) United States $0.182B 0.00
Icad Inc (ICAD) United States $0.043B 0.00
Neonode (NEON) Sweden $0.037B 0.00
NetSol Technologies (NTWK) United States $0.030B 0.00
Smith Micro Software (SMSI) United States $0.024B 0.00
Hanryu Holdings (HRYU) South Korea $0.022B 0.00
Wetouch Technology (WETH) $0.021B 0.00
GSE Systems (GVP) United States $0.011B 0.00
SAP SE (SAP) Germany $0.000B 49.88